Tracking 33203 objects as of 15-Feb-2026
HD Live streaming from Space Station
objects crossing your sky now

ITALSAT 1

Track ITALSAT 1 now!
ITALSAT 1 is classified as:


NORAD ID: 21055
Int'l Code: 1991-003A
Perigee: 35,826.4 km
Apogee: 35,927.5 km
Inclination: 14.6 °
Period: 1,440.3 minutes
Semi major axis: 42247 km
RCS: 3.4358 m2 (large)
Launch date: January 15, 1991
Source: Italy (IT)
Launch site: FRENCH GUIANA (FRGUI)
Your satellite tracking list
Your tracking list is empty




NASA's NSSDC Master Catalog

Two Line Element Set (TLE):
1 21055U 91003A   26046.11107308 -.00000125  00000-0  00000-0 0  9994
2 21055  14.5791 352.4326 0011976  37.2121 148.1766  0.99975719115867
Source of the keplerian elements: AFSPC